CAPE
2229 2393 2362 2450 2328 2069 1941 2172 2014 2011 2100 1912 2037 2222 2187 2652 2634 2954 3015 3287 3204 3238 3832 4713 4642 4676 4285 4267 4944 3936 3949 3883 3165 2504 2713 2406 1974 1692 1300 1270 1514 1401
2085 2167 2258 2178 2299 2377 2316 2249 2230 1937 2398 2352 2032 2396 2640 2565 2918 2815 2886 3053 3380 3095 3514 3858 4478 4460 4602 3920 4603 3860 3940 3457 3357 2728 2889 2885 2583 2045 1548 1583 1383 1430
2212 1963 2071 2031 1912 2337 1891 2081 2056 2038 1984 2046 1752 2191 2812 2735 2797 2944 2999 2968 3006 2633 2989 3565 4027 4120 4232 4286 4964 4170 3749 3777 3208 3051 2755 2885 2728 2511 2129 1607 1612 1463
2562 1994 1603 1395 1297 1561 1822 1640 1963 2030 1656 1892 1882 1772 1947 1637 2126 2847 3017 2979 2886 2902 2750 3027 3355 3554 3766 4066 4596 3721 3647 4143 3396 3616 3394 3226 2790 2579 2172 1897 1702 1663
2688 2284 1731 1515 1228 1281 1605 1694 1569 1789 1727 1542 1849 1902 2256 2108 2449 2463 2808 3164 2938 3015 2888 3089 3248 3218 3498 3631 4080 3943 3436 3676 3330 3777 3876 3594 3244 2725 2211 1895 1814 1669
2843 2589 2263 1833 1666 1628 1714 1894 1772 1476 1642 1290 1843 1660 2062 2645 2352 1958 2106 2404 2486 2332 2473 2650 2898 2918 2888 3371 3698 3592 3361 3091 2912 3568 3633 3498 3408 2956 2380 2219 2155 2187
2777 2750 2424 2094 1888 1805 1972 1861 1912 1643 1298 1258 1593 1697 1696 2008 2202 1928 2034 2036 1685 1893 1990 2264 2783 2711 2676 3177 3531 3699 3534 3387 3218 3866 3896 3362 3221 3140 2766 2503 2538 2478
2607 2591 2689 2212 1852 1774 2037 1830 1817 1886 1609 1508 1332 1798 1689 1466 1949 1742 2026 2003 1605 1586 1870 2034 2715 3046 2697 2863 3350 3379 3562 3327 3192 3368 3624 3346 3073 3266 3224 2918 2769 2986
2547 2591 2622 2373 1926 1671 1666 1474 1590 1802 1777 1691 1271 1136 1698 1472 1425 1388 1656 2147 2050 1815 2232 2301 2608 3121 2967 2692 2870 3120 3285 2989 2730 3092 3419 3328 2975 3058 2874 3071 3051 3034
2654 2485 2362 2280 1924 1610 1374 1309 1098 1382 1763 1744 1541 973 999 1597 1290 1244 1608 2372 2559 2244 2603 2826 2730 2979 2818 2499 2760 2939 3121 3156 2959 3003 3216 3240 2922 2740 2672 2568 2718 2996
2447 2328 2205 2151 1862 1567 1402 1230 1046 923 1339 1570 1498 1080 736 1104 1663 1538 1670 2399 2289 2105 2308 2745 2730 2719 2728 2062 2008 2246 2506 2541 2607 2880 3021 3144 2952 2901 2853 2683 2732 2716
2336 2204 2003 2027 1917 1676 1466 1345 1197 1010 978 1437 1478 1128 913 805 1442 1695 1483 2137 2322 1712 1857 2466 2719 2818 2971 2891 1927 1916 2262 2269 2162 2488 2632 2790 2998 2916 2928 2873 2882 2941
2158 2174 2085 1865 1999 1846 1570 1442 1308 1162 1047 1166 1443 1263 935 798 930 1690 1724 1720 2280 1928 1540 2045 2735 2656 2834 3236 2704 2051 1947 2446 1755 1855 2298 2484 2715 2616 2497 2677 2717 2666
2076 2268 2148 2029 1967 2144 1935 1639 1455 1364 1356 1280 1436 1450 1116 741 726 1036 1674 1761 1779 1726 1564 1480 2425 2765 2755 3108 3060 2230 1793 2245 2568 1893 1583 1881 2047 2242 2086 1938 2213 2478
2268 2225 2273 2188 2061 2178 2180 1956 1716 1669 1618 1587 1588 1540 1295 976 760 634 1008 1579 1714 1680 1542 1305 1342 2386 2423 2748 3036 2901 2046 1672 2209 2419 1837 1481 1652 1645 1713 1673 1591 1824
2482 2413 2364 2445 2226 2226 2378 2243 1912 1809 1647 1686 1705 1712 1598 1447 1246 991 753 1020 1552 1797 1703 1461 1278 1510 2405 2087 2418 2658 2639 1487 1506 2217 2332 1813 1556 1576 1239 1254 1334 1327
2594 2716 2568 2600 2514 2358 2398 2453 2158 1860 1772 1871 1884 1882 1871 1804 1647 1382 1109 931 1096 1550 1821 1624 1333 1238 1739 2037 2029 2230 2178 2439 1973 1862 2587 2709 2065 1743 1801 1088 801 1007
2752 2949 2778 2692 2728 2643 2482 2622 2337 2090 2011 2008 1963 1919 2146 1929 1844 1689 1565 1224 1011 1196 1477 1720 1630 1158 1310 1808 1779 1786 1967 1803 1867 1978 1819 2172 2343 1638 1324 1414 1199 750
2751 2525 2730 2699 2806 2797 2649 2701 2562 2288 2143 2027 1908 1987 1948 2195 2105 1911 1880 1660 1282 1219 1180 1332 1620 1340 1101 1351 1484 1415 1394 1352 883 1166 1405 1455 1560 1837 1654 1379 1465 1503
2618 2206 2092 2420 2668 2851 2769 2590 2592 2587 2101 1926 1935 1996 2083 2117 2075 2062 2060 2184 1914 1600 1502 1341 1348 1276 1115 1048 1080 1066 1048 1146 1240 624 699 885 1229 1442 1528 1704 1806 1783
2577 2484 2177 2085 2486 2829 2823 2721 2574 2564 2349 1942 1813 1884 2096 2255 2175 2133 2086 2150 2052 1901 1759 1558 1452 1132 971 928 831 746 710 682 1274 809 526 562 866 1224 1742 1785 1955 2037
2006 2227 2272 2394 2540 2670 2808 2780 2724 2728 2720 2365 1996 1720 1909 2066 2261 2103 2035 1999 1968 1926 1761 1780 1645 1170 994 855 801 773 708 622 1392 1230 956 802 829 1011 1513 2074 2303 2160
1433 1665 2655 2521 2283 2331 2508 2631 2595 2666 2801 2613 2334 1922 1699 1880 2133 2178 2197 2001 1934 1927 1935 1904 1873 1599 1125 1036 1062 1055 1015 944 1220 1402 1330 1216 1122 1241 1510 2000 2283 2598
1367 1410 1562 2326 2674 2408 2188 2353 2354 2421 1995 2473 2441 2238 1887 1738 1916 2187 2282 2252 1972 1891 1840 1985 1951 1725 1352 1114 1162 1190 1203 1172 1151 1341 1515 1504 1496 1518 1522 1713 2173 2466
1337 1141 1417 1463 2099 2170 2067 2067 1881 2151 2182 2297 2334 2289 2190 2040 1838 1960 2186 2288 2188 1979 1640 1693 1974 1822 1412 1203 1237 1291 1316 1313 1292 1296 1594 1768 1821 1840 1849 1844 2048 2616
1219 1373 1246 1175 1378 1616 2130 1848 1469 1360 1629 2300 2348 2282 2302 2090 1966 1934 2009 2186 2295 2174 2021 1760 1798 2101 1577 1338 1392 1434 1459 1490 1482 1439 1661 1910 2109 2127 2304 2291 2180 2403
Wind_Speed
4 5 5 6 8 10 9 7 7 6 6 6 5 5 5 5 5 5 5 6 5 5 5 5 5 4 4 4 4 5 6 5 5 4 3 4 4 5 7 8 9 8
4 4 5 6 8 9 10 9 8 7 6 6 7 6 6 5 5 5 4 4 5 5 6 5 5 4 4 4 4 4 5 5 4 5 4 3 4 4 5 6 7 9
4 3 3 4 6 6 7 8 9 8 7 7 7 7 6 5 5 5 5 4 4 5 6 6 5 5 4 5 5 4 4 4 4 5 5 4 4 4 5 5 5 5
4 4 5 5 6 7 8 9 9 9 9 8 7 7 6 6 6 5 5 4 4 5 6 6 6 6 6 5 5 5 5 5 5 6 5 5 5 4 3 4 6 6
5 5 6 7 8 8 9 8 8 9 9 9 8 7 7 6 6 5 5 5 4 4 6 6 6 6 7 7 6 6 5 5 5 5 6 5 5 4 4 4 4 5
8 7 7 8 8 8 8 8 8 9 9 8 8 8 7 6 6 5 5 4 4 4 5 6 7 6 7 8 8 7 7 6 6 5 5 5 5 5 5 5 4 4
9 9 7 8 7 8 8 8 9 9 9 10 10 9 8 7 6 5 5 4 4 4 4 6 7 7 7 8 8 7 7 7 7 6 5 5 6 5 5 5 5 5
11 11 10 10 8 8 8 9 9 10 10 11 10 10 9 8 7 6 5 4 4 4 5 5 7 7 6 8 8 7 7 8 6 6 5 5 5 5 4 5 5 4
14 13 12 9 8 9 8 8 9 10 11 10 10 11 10 9 8 7 7 6 5 6 6 6 7 7 7 6 7 7 6 6 7 6 5 5 4 4 4 4 4 4
15 15 12 11 9 10 9 9 10 11 11 11 11 11 11 11 9 8 8 8 7 7 7 7 7 7 6 6 6 6 6 6 6 7 7 6 5 4 4 4 3 4
15 15 14 12 11 12 10 11 11 12 13 12 11 11 11 12 12 10 10 9 9 8 8 7 7 7 6 5 6 6 6 6 7 7 7 6 6 5 5 4 4 3
16 15 14 13 13 13 13 13 13 12 13 14 12 12 12 12 12 12 11 10 10 9 8 8 8 8 7 6 5 6 6 6 7 7 7 7 6 6 5 5 4 4
17 17 17 16 17 17 17 16 14 13 13 14 15 13 12 11 12 12 13 12 11 9 8 8 8 8 8 7 5 5 6 6 6 7 7 7 7 7 7 6 5 5
19 20 19 20 20 20 19 18 17 16 15 15 16 14 13 12 11 12 13 13 11 10 9 9 9 8 8 7 6 6 6 6 7 7 7 7 7 7 8 8 7 6
23 23 23 22 22 22 21 20 19 19 18 17 16 16 16 14 13 12 13 13 12 11 10 9 8 9 9 9 8 7 6 6 6 7 7 8 8 7 8 8 8 8
24 24 25 24 23 23 23 22 21 21 20 18 17 17 17 16 15 14 12 12 13 13 12 11 10 10 11 11 10 9 9 7 8 8 8 8 8 7 7 7 7 8
24 24 25 24 24 24 24 24 23 22 22 21 20 19 18 18 16 14 13 12 12 13 12 12 11 11 15 17 14 11 10 10 9 10 10 9 8 8 7 6 6 7
22 23 23 23 25 25 25 25 25 24 23 22 21 19 19 18 17 15 14 13 13 12 11 11 10 12 19 20 18 16 13 11 11 11 11 10 9 8 8 8 6 6
23 20 19 21 23 24 26 26 26 24 23 22 21 21 21 19 17 17 16 14 13 12 11 10 10 14 20 21 20 19 17 14 11 12 11 10 10 9 8 8 9 9
23 20 19 19 21 23 24 24 24 24 22 22 22 23 22 19 18 17 18 18 16 14 13 12 10 16 22 22 21 21 21 19 13 12 11 10 10 10 10 10 9 9
25 22 20 20 21 21 22 22 22 22 22 22 23 23 22 21 20 20 19 18 17 17 16 14 13 16 23 23 23 23 23 22 16 14 12 11 11 10 11 11 12 11
39 29 23 23 22 21 19 18 19 21 20 22 22 21 23 22 22 21 19 18 18 18 17 16 15 19 25 25 25 24 27 24 19 15 14 13 12 12 12 14 13 13
42 40 37 28 22 21 19 18 17 17 19 21 20 19 19 21 22 21 21 19 18 18 16 16 16 22 27 28 28 29 30 23 21 19 17 14 13 14 14 14 14 15
44 42 39 38 33 24 21 19 19 19 17 19 18 17 17 17 20 21 20 19 17 16 16 14 14 21 28 28 30 33 29 25 22 20 18 16 15 15 15 14 14 14
44 44 42 41 39 36 29 26 24 23 23 22 19 18 18 18 19 19 18 18 16 14 15 13 13 19 28 26 28 30 27 23 22 20 18 16 16 15 14 14 13 15
44 45 45 44 43 44 46 43 39 33 29 26 26 25 23 19 19 18 16 17 17 15 16 14 13 16 25 26 27 27 25 21 19 18 16 16 15 15 15 14 13 13
Wind_Direction
197 197 190 190 186 185 191 188 182 176 170 164 175 184 188 198 200 214 211 227 234 228 233 223 223 211 201 198 192 178 183 184 172 182 169 161 160 150 153 161 172 166
199 191 186 194 196 195 193 191 187 180 188 180 184 197 204 210 227 228 228 233 244 241 238 240 239 230 219 212 219 198 194 192 176 183 187 175 164 154 142 153 168 175
211 196 183 182 194 201 193 196 189 185 191 196 196 196 205 217 230 239 239 243 247 250 258 243 244 245 239 227 228 214 210 208 187 187 192 182 168 175 156 155 171 174
221 203 190 176 178 195 202 197 199 192 191 206 202 208 204 211 229 244 241 253 247 251 255 258 250 251 254 245 239 218 216 213 206 203 201 188 184 177 185 171 170 178
229 223 205 197 189 192 204 205 198 204 195 201 209 214 219 216 230 233 240 246 248 258 264 263 262 251 252 245 243 228 224 221 228 216 208 201 198 195 186 205 194 181
223 225 226 216 209 205 207 211 208 202 201 200 206 213 224 233 227 220 232 235 250 253 262 272 273 267 263 258 244 234 226 221 230 235 217 207 201 210 202 225 226 212
228 231 235 231 226 221 212 212 213 208 202 198 210 205 212 225 228 219 217 222 220 240 253 264 266 264 261 257 256 247 233 222 214 231 223 214 213 206 205 222 229 226
229 230 231 232 237 234 225 217 213 216 211 206 202 207 203 209 219 219 223 222 227 232 236 247 265 264 262 262 260 255 246 242 235 222 219 211 210 211 218 219 237 235
230 230 230 232 237 235 235 226 223 218 218 214 205 204 210 204 213 214 226 235 232 238 247 246 251 260 257 252 255 257 249 234 235 241 229 219 218 209 216 237 239 248
231 231 235 234 231 231 234 232 225 225 224 219 214 204 208 214 210 216 231 240 244 245 248 247 253 255 254 256 254 251 247 241 229 229 231 226 216 215 231 242 249 255
231 232 233 233 230 229 235 235 229 225 229 226 221 213 207 214 219 219 226 238 241 250 250 249 252 256 258 256 256 252 248 240 237 235 230 224 218 221 223 232 250 259
235 232 233 234 231 229 233 236 234 230 230 232 228 224 218 213 220 223 228 237 237 240 245 248 249 254 260 257 259 260 253 242 240 236 234 228 223 227 231 240 245 260
243 239 235 232 232 228 228 233 234 235 234 233 235 233 231 223 222 225 228 234 241 242 246 252 256 260 260 265 260 251 250 247 235 242 241 234 232 225 226 237 246 253
242 242 240 237 233 232 229 230 233 235 237 235 236 240 238 237 228 231 234 235 240 245 248 250 259 261 268 270 267 262 258 252 242 231 237 244 238 236 230 229 239 246
243 240 240 242 242 240 237 234 232 234 236 237 239 239 240 242 242 236 238 241 243 248 251 255 260 266 266 272 275 278 265 258 253 246 241 237 239 241 243 237 234 240
247 244 242 243 246 246 245 243 238 236 236 238 239 241 240 242 244 246 244 248 249 253 257 258 260 261 273 294 288 274 278 266 258 253 246 243 245 245 242 249 248 239
245 247 246 247 246 246 247 247 246 242 239 238 237 238 240 243 246 253 254 253 259 261 266 264 263 264 287 294 298 299 282 275 268 261 259 254 254 253 249 245 247 257
239 244 248 248 247 247 247 249 249 247 245 244 243 243 242 243 249 253 255 257 258 266 270 269 266 277 287 295 302 305 297 282 275 269 264 263 258 256 255 255 254 252
236 235 240 246 249 249 248 248 250 252 251 250 251 249 247 247 248 252 256 257 257 262 267 272 268 282 290 298 302 306 306 299 278 274 272 268 262 263 260 258 255 255
246 248 242 242 247 249 251 251 253 255 256 255 252 252 252 252 253 255 254 257 258 259 259 259 263 277 294 298 301 304 304 296 285 284 279 274 272 268 262 264 266 260
244 244 248 251 251 252 254 256 257 255 257 255 255 257 258 257 255 255 255 259 261 261 259 260 260 275 286 295 297 299 299 292 288 287 285 284 284 279 271 265 264 265
229 230 237 244 252 258 258 258 259 261 260 258 254 254 256 257 257 254 257 260 262 262 261 264 263 280 282 287 291 291 290 277 282 287 287 286 286 288 282 274 272 270
229 227 227 235 247 251 256 256 254 255 258 257 256 254 253 255 256 258 255 255 260 262 263 261 260 274 284 286 287 288 280 275 280 281 283 288 288 288 286 286 284 282
229 228 228 229 234 243 247 248 247 247 248 251 255 255 253 251 253 253 254 254 259 265 269 265 263 272 285 287 289 289 289 281 280 282 284 287 288 289 287 287 290 297
231 230 230 230 229 229 233 235 240 239 239 241 242 242 242 243 246 247 250 252 254 259 264 266 257 265 282 287 290 292 290 279 281 280 284 287 286 287 291 286 284 286
233 232 231 231 229 229 231 229 223 220 224 229 231 228 229 234 237 237 239 242 244 246 248 257 255 251 273 289 289 292 298 281 278 281 283 287 284 283 283 287 290 282